Find Kosmos-2587

NORAD ID: 63290 Int'l Des: 2025-054 Owner: VVKOV Country: RU operational
LEOCIRCULARPOLAR

現在のビュー

3D地球を読み込み中...

Kosmos-2587について

説明を読み込み中...

次回通過

Passes for default location (London). Set your location on the main map for personalized predictions.

高度履歴

Loading altitude history...

軌道要素

1 63290U 25054C 26149.49162565 .00000017 00000-0 48719-4 0 9997
2 63290 82.4971 90.3414 0016111 54.4549 305.8030 12.42892301 54533
Epoch: May 29, 2026 • Age: 19 hours

現在のステータス

高度 1529.8 km
速度 7.10 km/s
衛星直下点 -75.26°S, 71.63°E
打ち上げ日 Mar 16, 2025
運用期間 1.2 years
タイプ other

技術仕様

分類 Payload
質量 280.00 kg
乾燥質量 280.00 kg
総質量 280.00 kg
長さ 1.60 m
直径 0.80 m
スパン 7.00 m
形状 Cyl + Ant
製造者 RESH
バスタイプ Strela-3M
フェーズステータス In Orbit
所有者/国 VVKOV/RU

Most Searched